SCP
0 0 0 0 0 0 0 0 0 0 0 0 0 0 0 0 0 0 0 0 0 0 0 0 0 0 0 0 0 0 0 0 1 1 1 2 2 2 1 1 1 0 0 0
0 0 0 0 0 0 0 0 0 0 0 0 0 0 0 0 0 0 0 0 0 0 0 0 0 0 0 0 0 0 0 0 0 1 1 1 1 1 1 1 0 0 0 0
0 0 0 0 0 0 0 0 0 0 0 0 0 0 0 0 0 0 0 0 0 0 0 0 0 0 0 0 0 0 0 0 0 1 1 1 0 0 0 0 0 0 0 0
0 0 0 0 0 0 0 0 0 0 0 0 0 0 0 0 0 0 0 0 0 0 0 0 0 0 0 0 0 0 0 0 0 1 1 0 0 0 0 0 0 0 0 0
0 0 0 0 0 0 0 0 0 0 0 0 0 0 0 0 0 0 0 0 0 0 0 0 0 0 0 0 0 0 0 0 0 1 1 0 0 0 0 0 0 0 0 0
0 0 0 0 0 0 0 0 0 0 0 0 0 0 0 0 0 0 0 0 0 0 0 0 0 0 0 0 0 0 0 0 0 1 0 0 0 0 0 0 0 0 0 0
0 0 0 0 0 0 0 0 0 0 0 0 0 0 0 0 0 0 0 0 0 0 0 0 0 0 0 0 0 0 0 0 0 0 0 0 0 0 0 0 0 0 0 0
0 0 0 0 0 0 0 0 0 0 0 0 0 0 0 0 0 0 0 0 0 0 0 0 0 0 0 0 0 0 0 0 0 0 0 0 0 0 0 0 0 0 0 0
0 0 0 0 0 0 0 0 0 0 0 0 0 0 0 0 0 0 0 0 0 0 0 0 0 0 0 0 0 0 0 0 0 0 0 0 0 0 0 0 0 0 0 0
0 0 0 0 0 0 0 0 0 0 0 0 0 0 0 0 0 0 0 0 0 0 0 0 0 0 0 0 0 0 0 0 1 1 0 0 0 0 0 0 0 0 0 0
0 0 0 0 0 0 0 0 0 0 0 0 0 0 0 0 0 0 0 0 0 0 0 0 0 0 0 0 0 0 0 1 1 1 0 0 0 0 0 0 0 0 0 0
0 0 0 0 0 0 0 0 0 0 0 0 0 0 0 0 0 0 0 0 0 0 0 0 0 0 0 0 0 0 1 1 1 0 0 0 0 0 0 0 0 0 0 0
0 0 0 0 0 0 0 0 0 0 0 0 0 0 0 0 0 0 0 0 0 0 0 0 0 0 0 0 0 0 0 0 0 0 0 0 0 0 0 0 0 0 0 0
0 0 0 0 0 0 0 0 0 0 0 0 0 0 0 0 0 0 0 0 0 0 0 0 0 0 0 0 0 0 0 0 0 0 0 0 0 0 0 0 0 0 0 0
0 0 0 0 0 0 0 0 0 0 0 0 0 0 0 0 0 0 0 0 0 0 0 0 0 0 0 0 0 0 0 0 0 0 0 0 0 0 0 0 0 0 0 0
0 0 0 0 0 0 0 0 0 0 0 0 0 0 0 0 0 0 0 0 0 0 0 0 0 0 0 0 0 0 0 0 0 0 0 0 0 0 0 0 0 0 0 0
0 0 0 0 0 0 0 0 0 0 0 0 0 0 0 0 0 0 0 0 0 0 0 0 0 0 0 0 0 0 0 0 0 0 0 0 0 0 0 0 0 0 0 0
0 0 0 0 0 0 0 0 0 0 0 0 0 0 0 0 0 0 0 0 0 0 0 0 0 0 0 0 0 0 0 0 0 0 0 0 0 0 0 0 0 0 0 0
-0 -0 0 0 0 0 0 0 0 0 0 0 0 0 0 0 0 0 0 0 0 0 0 0 0 0 0 0 0 0 0 0 0 0 0 0 0 0 0 0 0 0 0 0
0 0 0 0 0 0 0 0 0 0 0 0 0 0 0 0 0 0 0 0 0 0 0 0 0 0 0 0 0 0 0 0 0 0 0 0 0 0 0 0 0 0 0 0
0 0 0 0 0 0 0 0 0 0 0 0 0 0 0 0 0 0 0 0 0 0 0 0 0 0 0 0 0 0 0 0 0 0 0 0 0 0 0 0 0 0 0 0
0 0 0 0 0 0 0 0 0 0 0 0 0 0 0 0 0 0 0 0 0 0 0 0 0 0 0 0 0 0 0 0 0 0 0 0 0 0 0 0 0 0 0 0
0 0 0 0 0 0 0 0 0 0 0 0 0 0 0 0 0 0 0 0 0 0 0 0 0 0 0 0 0 0 0 0 0 0 0 0 0 0 0 0 0 0 0 0
0 0 0 0 0 0 0 0 0 0 0 0 0 0 0 0 0 0 0 0 0 0 0 0 0 0 0 0 0 0 0 0 0 0 0 0 0 0 0 0 0 0 0 0
0 0 0 0 0 0 0 0 0 0 0 0 0 0 0 0 0 0 0 0 0 0 0 0 0 0 0 0 0 0 0 0 0 0 0 0 0 0 0 0 0 0 0 0
0 0 0 0 0 0 0 0 0 0 0 0 0 0 0 0 0 0 0 0 0 0 0 0 0 0 0 0 0 0 0 0 0 0 0 0 0 0 0 0 0 0 0 0
0 0 0 0 0 0 0 0 0 0 0 0 0 0 0 0 0 0 0 0 0 0 0 0 0 0 0 0 0 0 0 0 0 0 0 0 0 0 0 0 0 0 0 0
Wind_Speed
6 7 5 6 7 6 8 8 8 8 8 10 7 6 6 6 6 6 7 7 7 7 6 5 4 4 3 3 2 1 0 1 2 2 2 3 3 3 3 3 3 4 3 3
4 4 4 6 7 7 8 7 8 8 11 7 5 3 4 5 6 7 7 7 7 7 7 7 5 4 4 3 3 1 1 1 1 1 2 2 2 3 2 2 2 3 3 3
4 5 4 7 6 6 5 4 5 8 7 3 4 5 4 6 7 6 7 7 7 7 7 7 6 4 3 3 3 2 1 2 1 1 1 2 2 2 2 3 3 3 3 3
2 4 5 6 1 3 4 4 4 4 4 4 4 5 5 5 5 5 6 6 7 7 7 7 6 4 3 3 3 2 2 2 2 1 1 1 2 2 3 3 3 3 3 4
1 2 8 6 2 1 2 5 3 3 4 4 3 4 4 3 2 4 6 7 7 6 6 6 5 4 4 3 3 3 2 2 2 1 1 1 2 2 2 3 3 3 3 4
2 2 6 5 3 2 1 4 2 1 3 4 3 3 5 4 6 7 7 6 6 6 5 5 5 4 3 3 3 3 3 3 2 1 1 2 2 2 2 2 2 2 2 3
3 4 8 4 3 1 1 5 3 2 3 3 3 5 6 7 7 6 6 6 6 5 4 4 4 3 3 3 4 4 4 2 2 1 2 2 2 1 2 2 2 2 2 2
3 4 8 1 2 2 4 4 3 4 3 4 5 6 7 6 6 6 6 6 6 5 4 4 3 2 3 4 4 4 3 2 1 1 1 1 1 1 2 2 2 2 2 1
7 7 4 1 3 3 3 4 4 4 4 4 5 6 7 6 6 6 6 6 5 4 5 4 3 2 3 5 4 3 3 2 1 1 1 0 1 1 1 2 2 2 2 2
4 7 5 5 5 4 3 4 5 4 4 4 5 6 7 6 5 5 6 5 5 4 5 5 4 3 3 4 3 2 2 2 1 0 0 0 1 1 2 2 2 2 2 2
5 7 6 4 4 4 4 4 4 5 4 4 4 5 5 5 6 5 5 5 4 4 5 5 4 4 4 3 2 2 2 1 1 1 1 1 1 1 2 3 3 3 3 3
6 5 4 6 5 3 3 4 5 5 5 5 4 5 5 5 5 5 5 4 4 5 5 5 4 4 4 3 2 1 1 1 1 1 0 0 1 1 2 2 2 3 3 3
4 3 4 6 5 3 3 4 5 5 5 6 5 4 4 5 5 4 5 4 4 5 5 5 4 4 4 3 3 2 1 2 1 1 0 0 0 0 1 2 2 1 1 1
3 2 4 4 4 5 5 5 5 5 5 4 4 4 4 4 4 4 4 4 4 4 4 4 4 4 4 3 3 2 2 2 1 1 1 1 0 0 0 1 1 1 1 1
3 3 4 4 4 4 4 4 4 5 5 5 4 4 4 4 4 4 4 4 4 4 4 3 3 4 4 3 2 2 2 1 1 0 0 0 0 0 0 1 1 1 1 1
4 3 3 4 5 5 5 4 5 6 5 5 5 4 4 3 4 3 3 3 3 4 4 4 4 4 3 2 2 2 2 2 2 0 0 0 1 1 1 1 1 1 0 0
2 4 4 5 5 5 5 5 5 6 5 5 5 4 3 3 3 4 3 3 3 4 4 3 4 3 3 2 2 1 1 2 3 1 1 1 1 0 0 0 0 0 0 0
5 5 5 5 5 6 6 5 5 5 5 5 4 3 2 3 3 4 4 4 3 4 4 3 3 3 2 2 2 1 1 1 1 1 0 0 0 0 1 1 1 1 0 0
4 4 4 4 4 4 5 5 5 5 4 4 3 3 3 3 3 3 3 3 3 4 4 3 4 3 2 2 2 1 1 1 1 1 1 1 1 1 1 1 1 0 0 0
3 3 3 4 4 3 4 4 4 4 4 3 2 2 3 3 3 2 2 3 3 3 3 3 3 2 2 2 3 1 0 0 0 1 1 1 0 0 1 1 0 0 0 0
4 4 4 4 4 4 4 3 3 4 4 3 2 3 3 3 3 2 2 3 3 3 3 4 2 2 2 2 2 1 1 0 0 0 0 0 0 0 0 0 0 0 0 1
4 4 4 4 4 4 4 3 3 4 3 3 3 3 3 3 3 2 2 3 3 4 3 2 2 2 3 2 1 0 0 0 0 0 0 0 0 0 0 0 1 1 1 1
4 4 4 4 4 4 4 3 3 3 3 3 3 3 3 3 2 2 3 3 2 4 3 2 3 4 4 2 1 1 0 0 0 0 0 0 0 1 1 1 1 1 1 1
4 4 4 3 2 3 4 4 3 3 3 3 3 3 3 2 2 2 2 4 5 5 2 3 5 5 4 1 1 1 1 1 0 0 0 0 1 0 0 0 1 1 1 1
4 3 3 2 2 3 4 4 3 3 3 2 3 3 2 2 2 3 2 3 4 4 2 4 5 4 2 1 1 1 1 1 0 0 0 1 1 1 0 0 1 1 1 1
3 3 3 3 3 2 2 2 2 2 2 3 3 2 2 2 2 2 2 2 3 3 2 2 2 3 2 1 1 1 1 1 2 1 1 1 1 1 0 0 0 0 0 1
3 2 2 2 2 2 2 2 2 3 2 2 3 3 2 2 2 2 2 2 2 2 2 2 2 2 1 1 1 1 1 1 1 1 1 1 1 0 0 0 0 0 0 1
Wind_Direction
259 272 261 248 253 231 220 225 232 256 262 281 294 307 316 326 333 337 341 343 345 342 343 347 346 345 343 344 346 337 315 240 229 218 202 191 184 186 184 187 200 190 185 186
287 276 264 266 261 244 242 240 244 267 277 279 293 313 324 326 331 332 331 332 333 336 338 337 333 329 334 338 339 344 335 294 272 225 202 191 184 180 171 181 179 171 180 180
280 310 326 279 246 212 214 222 216 241 259 297 314 315 313 317 321 321 321 325 328 330 325 321 320 315 319 324 337 348 320 297 288 263 214 202 189 177 178 180 176 174 182 184
293 358 261 252 236 204 216 255 234 252 284 293 283 293 298 299 304 317 324 323 322 321 319 317 315 321 322 327 339 339 324 308 297 267 235 216 193 192 191 186 183 184 188 192
176 275 281 296 302 215 217 282 248 239 284 305 312 321 313 312 320 311 311 309 308 307 306 313 320 325 332 321 327 329 313 296 283 261 239 222 210 200 193 187 193 192 187 187
161 227 256 276 325 319 84 291 292 247 281 308 342 326 296 321 323 316 313 314 315 316 319 322 322 329 340 332 328 316 301 292 283 257 227 228 221 209 198 193 200 193 194 191
200 239 265 275 304 18 124 275 309 288 284 289 280 263 283 304 311 314 315 318 323 326 326 318 321 331 332 332 315 301 295 288 288 271 238 225 211 196 183 184 174 175 188 202
178 221 260 294 99 183 248 299 300 291 284 278 280 291 298 306 315 323 327 331 334 337 333 331 333 336 331 317 305 305 304 299 298 292 265 226 166 177 170 169 171 173 178 201
201 225 266 238 235 263 287 291 289 285 290 286 290 296 304 310 315 319 323 328 328 329 328 331 336 338 321 312 319 326 331 324 312 309 285 206 167 173 171 175 182 188 189 203
266 271 273 275 278 291 292 282 288 289 290 286 285 294 302 307 314 319 322 325 327 331 329 325 329 333 317 314 319 326 327 322 320 326 300 240 193 194 189 193 196 195 196 205
263 280 303 287 266 277 291 299 305 310 303 293 294 297 297 305 311 314 318 322 327 325 319 317 321 324 322 322 325 325 326 327 327 309 265 269 255 228 221 219 216 199 195 194
235 251 249 279 295 288 293 297 300 310 312 311 298 292 299 300 303 310 314 320 324 325 322 319 323 323 325 327 326 319 328 327 308 295 276 247 253 303 294 253 244 230 215 202
251 283 262 280 296 292 289 295 302 302 297 303 305 297 299 301 305 310 315 317 317 319 320 323 326 324 326 328 324 315 293 290 284 285 272 239 208 175 2 5 5 356 217 198
269 301 294 292 297 307 303 303 308 307 303 298 299 303 304 305 308 311 310 310 313 317 319 325 327 323 325 327 324 310 290 283 282 254 237 229 212 197 150 113 39 25 37 96
281 258 265 294 307 313 315 317 318 315 316 315 311 303 301 301 304 305 308 313 319 318 320 323 325 321 328 337 334 320 309 288 281 252 241 237 214 92 127 127 123 100 59 74
302 296 286 292 296 305 313 312 305 303 306 306 307 303 299 299 301 306 312 317 319 314 314 318 318 317 328 343 347 346 344 338 342 337 112 91 84 100 118 125 128 133 133 125
277 291 293 296 294 296 292 288 285 289 295 296 298 303 311 317 317 315 318 323 312 302 302 302 306 321 337 341 341 344 354 353 351 0 54 78 79 100 121 117 118 107 118 180
243 257 263 268 274 284 292 296 297 298 295 292 300 305 304 298 298 306 318 331 335 327 316 306 315 334 341 339 340 344 358 354 348 2 50 73 93 120 113 114 126 129 92 77
278 277 280 280 278 278 285 293 298 300 303 301 296 294 292 292 293 303 319 329 325 318 317 323 332 343 335 330 342 349 18 5 1 23 48 38 28 94 116 124 147 174 176 129
304 303 301 301 301 293 294 302 307 308 307 306 301 303 305 302 304 309 317 307 292 288 304 322 334 331 330 331 346 1 10 4 32 22 31 62 69 62 93 116 139 153 159 154
305 307 308 308 308 309 305 305 305 304 308 310 297 292 294 303 307 306 311 309 312 309 313 321 333 327 330 332 345 2 8 26 36 32 18 26 53 59 117 130 146 188 194 174
297 297 297 301 308 310 313 309 302 301 308 310 304 301 304 308 311 307 290 276 298 316 330 328 323 312 320 331 360 17 26 52 35 34 27 295 252 259 240 199 196 201 199 186
290 289 292 298 300 301 311 312 305 299 296 295 293 292 288 287 291 297 306 307 306 315 323 314 317 321 325 342 13 23 13 22 20 5 325 284 253 244 234 221 200 190 192 183
290 289 289 296 307 310 309 308 308 301 295 293 289 285 283 295 302 282 274 307 320 322 323 321 327 330 340 8 22 32 23 10 356 348 339 319 299 271 236 210 188 180 177 175
287 286 288 297 292 284 288 305 316 314 315 312 309 304 291 269 271 295 303 303 311 323 327 325 332 341 357 16 17 7 353 339 341 344 326 317 311 304 274 207 185 175 168 171
284 280 273 264 262 272 285 296 298 303 309 314 317 316 311 304 294 298 308 311 312 326 331 329 334 342 357 1 355 353 348 337 336 343 339 328 326 321 301 275 188 188 191 182
287 286 289 293 284 272 272 274 280 291 293 294 303 309 315 320 322 320 318 326 337 343 342 344 349 352 353 355 353 352 349 347 344 340 331 329 330 314 296 283 291 132 158 158